Chicago, IL

10:26 AM CDT on October 23, 2017 (GMT -0500)
Chicago-O'Hare International

Weather History for KORD - June, 2017

Change the Weather History Date:

Monday, June 19, 2017

  Actual Average Record
Temperature  
Mean Temperature 71 °F 70 °F  
Max Temperature 80 °F 81 °F 102 °F (1953)
Min Temperature 62 °F 59 °F 43 °F (1980)
Degree Days  
Heating Degree Days 0 1  
Month to date heating degree days 0 42  
Since 1 June heating degree days 0 42  
Since 1 July heating degree days 5284 6334  
Cooling Degree Days 6 6  
Month to date cooling degree days 176 83  
Year to date cooling degree days 209 137  
Since 1 June cooling degree days 176 83  
Growing Degree Days 21 (Base 50)    
Moisture  
Dew Point 54 °F    
Average Humidity 59    
Maximum Humidity 78    
Minimum Humidity 39    
Precipitation  
Precipitation 0.03 in 0.11 in 3.97 in (2009)
Month to date precipitation 1.39 2.24  
Year to date precipitation 19.50 15.32  
Snow  
Snow T in 0.00 in 0.00 in ()
Month to date snowfall T 0.0  
Since 1 June snowfall T 0.0  
Since 1 July snowfall 26.1 36.3  
Snow Depth 0.00 in    
Sea Level Pressure  
Sea Level Pressure 29.83 in    
Wind  
Wind Speed 10 mph (WNW)    
Max Wind Speed 29 mph    
Max Gust Speed 36 mph    
Visibility 10 miles    
Events Rain , Hail , Thunderstorm    
T = Trace of Precipitation, MM = Missing Value Source: NWS Daily Summary

Daily Weather History Graph

Daily Weather History Graph

Search for Another Location

Airport or City:

Trip Planner

Search our weather history database for the weather conditions in past years. The results will help you decide how hot, cold, wet, or windy it might be!

Date:

Astronomy

Jun. 19, 2017 Rise Set
Actual Time 5:15 AM CDT 8:30 PM CDT
Civil Twilight 4:41 AM CDT 9:04 PM CDT
Nautical Twilight 3:56 AM CDT 9:49 PM CDT
Astronomical Twilight 3:03 AM CDT 10:42 PM CDT
Moon 2:10 AM CDT (6/19) 3:16 PM CDT (6/19)
Length of Visible Light 16h 23m
Length of Day
15h 14m
Waning Crescent, 26% of the Moon is Illuminated
Jun 19
Waning Crescent
Jun 23
New
Jun 30
First Quarter
Jul 8
Full
Jul 16
Last Quarter

Hourly Weather History & Observations

Time (CDT) Temp. Dew Point Humidity Pressure Visibility Wind Dir Wind Speed Gust Speed Precip Events Conditions
12:51 AM 70.0 °F 53.1 °F 55% 29.76 in 10.0 mi West 9.2 mph - N/A   Mostly Cloudy
1:51 AM 68.0 °F 53.1 °F 59% 29.76 in 10.0 mi West 8.1 mph - N/A   Mostly Cloudy
2:51 AM 66.0 °F 54.0 °F 65% 29.75 in 10.0 mi West 5.8 mph - N/A   Mostly Cloudy
3:51 AM 64.0 °F 55.0 °F 73% 29.76 in 10.0 mi WSW 5.8 mph - N/A   Scattered Clouds
4:51 AM 64.0 °F 55.0 °F 73% 29.77 in 10.0 mi West 8.1 mph - N/A   Scattered Clouds
6:51 AM 66.9 °F 55.9 °F 68% 29.80 in 10.0 mi West 6.9 mph - N/A   Mostly Cloudy
7:51 AM 68.0 °F 55.9 °F 65% 29.82 in 10.0 mi WNW 9.2 mph - N/A   Mostly Cloudy
8:51 AM 69.1 °F 57.0 °F 65% 29.83 in 10.0 mi West 8.1 mph - N/A   Mostly Cloudy
9:51 AM 72.0 °F 55.9 °F 57% 29.83 in 10.0 mi WNW 11.5 mph - N/A   Scattered Clouds
10:51 AM 73.9 °F 55.0 °F 52% 29.83 in 10.0 mi West 10.4 mph - N/A   Mostly Cloudy
11:51 AM 73.9 °F 54.0 °F 50% 29.83 in 10.0 mi West 11.5 mph 23.0 mph N/A   Mostly Cloudy
12:51 PM 77.0 °F 54.0 °F 45% 29.81 in 10.0 mi WNW 13.8 mph 24.2 mph N/A   Mostly Cloudy
1:51 PM 79.0 °F 51.1 °F 38% 29.80 in 10.0 mi WSW 17.3 mph 25.3 mph N/A   Mostly Cloudy
2:11 PM 79.0 °F 54.0 °F 42% 29.81 in 10.0 mi WSW 16.1 mph 24.2 mph N/A Thunderstorm Mostly Cloudy
2:21 PM 75.9 °F 52.0 °F 43% 29.81 in 10.0 mi West 19.6 mph 28.8 mph N/A Thunderstorm Thunderstorm
2:51 PM 72.0 °F 54.0 °F 53% 29.81 in 10.0 mi West 24.2 mph 28.8 mph 0.00 in Thunderstorm Thunderstorm
3:46 PM 68.0 °F 51.8 °F 56% 29.85 in 10.0 mi North 28.8 mph 35.7 mph 0.00 in   Overcast
3:51 PM 66.0 °F 52.0 °F 60% 29.85 in 10.0 mi North 23.0 mph 33.4 mph 0.00 in   Overcast
3:56 PM 66.0 °F 51.1 °F 59% 29.86 in 10.0 mi NNW 23.0 mph 32.2 mph N/A Thunderstorm Mostly Cloudy
4:06 PM 63.0 °F 55.0 °F 75% 29.85 in 8.0 mi North 16.1 mph - 0.01 in Rain , Hail , Thunderstorm Light Hail
4:09 PM 63.0 °F 55.0 °F 75% 29.85 in 7.0 mi North 15.0 mph - 0.02 in Rain , Thunderstorm Light Thunderstorms and Rain
4:14 PM 63.0 °F 55.0 °F 75% 29.85 in 8.0 mi North 12.7 mph - 0.03 in Rain , Thunderstorm Thunderstorms and Rain
4:38 PM 66.9 °F 55.9 °F 68% 29.85 in 10.0 mi NNW 11.5 mph - 0.03 in   Mostly Cloudy
4:51 PM 68.0 °F 55.0 °F 63% 29.85 in 10.0 mi NNW 13.8 mph - 0.03 in   Mostly Cloudy
5:51 PM 66.9 °F 52.0 °F 59% 29.85 in 10.0 mi West 4.6 mph - N/A   Mostly Cloudy
6:51 PM 69.1 °F 51.1 °F 53% 29.86 in 10.0 mi WNW 8.1 mph - N/A   Mostly Cloudy
7:51 PM 68.0 °F 54.0 °F 61% 29.86 in 10.0 mi West 10.4 mph - N/A   Mostly Cloudy
8:51 PM 66.9 °F 54.0 °F 63% 29.88 in 10.0 mi West 9.2 mph - N/A   Scattered Clouds
9:51 PM 64.9 °F 54.0 °F 68% 29.91 in 10.0 mi West 5.8 mph - N/A   Scattered Clouds
10:51 PM 63.0 °F 55.0 °F 75% 29.92 in 10.0 mi WSW 6.9 mph - N/A   Partly Cloudy
11:51 PM 63.0 °F 55.0 °F 75% 29.92 in 10.0 mi WSW 8.1 mph - N/A   Partly Cloudy